AFR84TL EKCH-LFPG

Flight info

Callsign AFR84TL
Flight time 1h 30m
Altitude 38000
Route NEXEN T503 GIMRU DCT MICOS DCT HAM DCT OSNAD DCT IDOSA UN857 TOLVU DCT RAPOR DCT VEDUS
Aircraft B77W/H-SDE1E2E3FGHIJ2J3J4J5M1RWXY/LB1D1

Departure

Time 2026-04-22 19:50
Airport Copenhagen Kastrup Airport (EKCH)

Arrival

Time 2026-04-22 21:21
Airport Charles de Gaulle International Airport (LFPG)
Time Latitude Longitude Altitude Speed Heading
2026-04-22 19:18 55.62432 12.65067 29 ft 0 kts 269°
2026-04-22 19:38 55.62433 12.65098 27 ft 4 kts 269°
2026-04-22 19:38 55.62433 12.65138 29 ft 3 kts 268°
2026-04-22 19:38 55.62440 12.65175 27 ft 4 kts 209°
2026-04-22 19:39 55.62464 12.65186 28 ft 3 kts 180°
2026-04-22 19:39 55.62490 12.65185 29 ft 4 kts 179°
2026-04-22 19:39 55.62517 12.65184 26 ft 4 kts 179°
2026-04-22 19:39 55.62524 12.65184 26 ft 0 kts 179°
2026-04-22 19:42 55.62498 12.65187 29 ft 10 kts 174°
2026-04-22 19:42 55.62426 12.65204 26 ft 11 kts 174°
2026-04-22 19:43 55.62276 12.65198 29 ft 9 kts 182°
2026-04-22 19:43 55.62254 12.65198 29 ft 1 kts 184°
2026-04-22 19:43 55.62200 12.65163 28 ft 13 kts 206°
2026-04-22 19:44 55.62123 12.65079 29 ft 13 kts 212°
2026-04-22 19:44 55.62043 12.64987 29 ft 15 kts 213°
2026-04-22 19:44 55.61957 12.64885 28 ft 15 kts 213°
2026-04-22 19:44 55.61870 12.64785 28 ft 15 kts 212°
2026-04-22 19:45 55.61782 12.64685 29 ft 15 kts 213°
2026-04-22 19:45 55.61691 12.64581 29 ft 16 kts 213°
2026-04-22 19:45 55.61600 12.64477 29 ft 16 kts 213°
2026-04-22 19:45 55.61507 12.64371 29 ft 16 kts 213°
2026-04-22 19:46 55.61413 12.64264 29 ft 17 kts 213°
2026-04-22 19:46 55.61304 12.64139 29 ft 19 kts 213°
2026-04-22 19:46 55.61194 12.64012 28 ft 19 kts 213°
2026-04-22 19:46 55.61084 12.63884 29 ft 19 kts 213°
2026-04-22 19:47 55.60974 12.63756 29 ft 19 kts 213°
2026-04-22 19:47 55.60865 12.63630 29 ft 19 kts 213°
2026-04-22 19:47 55.60791 12.63544 29 ft 19 kts 213°
2026-04-22 19:47 55.60647 12.63371 28 ft 19 kts 218°
2026-04-22 19:48 55.60546 12.63218 28 ft 19 kts 221°
2026-04-22 19:48 55.60441 12.63136 29 ft 17 kts 167°
2026-04-22 19:48 55.60355 12.63273 30 ft 17 kts 120°
2026-04-22 19:48 55.60370 12.63388 31 ft 0 kts 41°
2026-04-22 19:49 55.60385 12.63411 30 ft 15 kts 41°
2026-04-22 19:49 55.60683 12.63873 30 ft 100 kts 40°
2026-04-22 19:49 55.61408 12.64979 33 ft 171 kts 38°
2026-04-22 19:50 55.62387 12.66439 469 ft 194 kts 36°
2026-04-22 19:50 55.63451 12.67993 1267 ft 201 kts 35°
2026-04-22 19:50 55.64539 12.69677 2031 ft 214 kts 35°
2026-04-22 19:50 55.65717 12.71525 2489 ft 240 kts 36°
2026-04-22 19:51 55.66999 12.73566 3255 ft 249 kts 36°
2026-04-22 19:51 55.68320 12.75611 4139 ft 257 kts 35°
2026-04-22 19:51 55.69229 12.76984 4944 ft 250 kts 35°
2026-04-22 19:51 55.70394 12.79292 5753 ft 266 kts 55°
2026-04-22 19:52 55.70881 12.82535 6754 ft 278 kts 88°
2026-04-22 19:52 55.70292 12.85744 7776 ft 286 kts 121°
2026-04-22 19:52 55.68747 12.88151 8437 ft 304 kts 155°
2026-04-22 19:52 55.66724 12.89348 9040 ft 311 kts 163°
2026-04-22 19:53 55.64637 12.90518 9839 ft 318 kts 161°
2026-04-22 19:53 55.62520 12.91635 10620 ft 320 kts 171°
2026-04-22 19:53 55.60259 12.91453 10987 ft 339 kts 199°
2026-04-22 19:53 55.58159 12.89381 11214 ft 358 kts 225°
2026-04-22 19:54 55.56383 12.86136 11461 ft 378 kts 231°
2026-04-22 19:54 55.54561 12.82690 12227 ft 389 kts 229°
2026-04-22 19:54 55.52670 12.79208 13255 ft 395 kts 229°
2026-04-22 19:54 55.50764 12.75674 14330 ft 399 kts 230°
2026-04-22 19:55 55.48931 12.71950 15290 ft 404 kts 232°
2026-04-22 19:55 55.47121 12.68104 16223 ft 411 kts 232°
2026-04-22 19:55 55.45295 12.64186 17121 ft 417 kts 232°
2026-04-22 19:55 55.43433 12.60212 18052 ft 424 kts 231°
2026-04-22 19:56 55.41531 12.56189 18893 ft 430 kts 231°
2026-04-22 19:56 55.39595 12.52126 19657 ft 437 kts 231°
2026-04-22 19:56 55.37622 12.48009 20420 ft 443 kts 230°
2026-04-22 19:56 55.35645 12.43898 21163 ft 450 kts 230°
2026-04-22 19:57 55.33609 12.39677 21899 ft 456 kts 230°
2026-04-22 19:57 55.31516 12.35344 22641 ft 462 kts 229°
2026-04-22 19:57 55.29423 12.31015 23364 ft 468 kts 229°
2026-04-22 19:57 55.27298 12.26628 24010 ft 475 kts 229°
2026-04-22 19:58 55.25150 12.22198 24591 ft 480 kts 229°
2026-04-22 19:58 55.22976 12.17722 25203 ft 484 kts 229°
2026-04-22 19:58 55.20779 12.13227 25819 ft 488 kts 227°
2026-04-22 19:58 55.18338 12.09102 26344 ft 490 kts 217°
2026-04-22 19:59 55.15586 12.05557 26823 ft 494 kts 212°
2026-04-22 20:00 54.98373 11.84326 29887 ft 518 kts 213°
2026-04-22 20:00 54.95452 11.80606 30311 ft 522 kts 212°
2026-04-22 20:01 54.92528 11.76894 30919 ft 518 kts 212°
2026-04-22 20:01 54.89624 11.73218 31560 ft 515 kts 212°
2026-04-22 20:01 54.86732 11.69574 32089 ft 513 kts 212°
2026-04-22 20:01 54.83841 11.65940 32567 ft 513 kts 212°
2026-04-22 20:02 54.80948 11.62311 33034 ft 513 kts 211°
2026-04-22 20:02 54.78052 11.58693 33538 ft 512 kts 211°
2026-04-22 20:02 54.75163 11.55099 34035 ft 511 kts 211°
2026-04-22 20:02 54.72273 11.51512 34322 ft 514 kts 211°
2026-04-22 20:03 54.69355 11.47897 34297 ft 517 kts 211°
2026-04-22 20:03 54.63553 11.40712 34275 ft 509 kts 211°
2026-04-22 20:04 54.57794 11.33607 34280 ft 509 kts 210°
2026-04-22 20:04 54.52033 11.26540 34293 ft 508 kts 210°
2026-04-22 20:05 54.46240 11.19478 34508 ft 513 kts 210°
2026-04-22 20:05 54.43332 11.15940 34939 ft 511 kts 210°
2026-04-22 20:05 54.40438 11.12419 35411 ft 508 kts 210°
2026-04-22 20:05 54.37565 11.08928 35908 ft 505 kts 210°
2026-04-22 20:06 54.34707 11.05464 36378 ft 502 kts 210°
2026-04-22 20:06 54.31861 11.02022 36799 ft 500 kts 211°
2026-04-22 20:06 54.29029 10.98571 37175 ft 500 kts 212°
2026-04-22 20:06 54.26246 10.95003 37530 ft 500 kts 213°
2026-04-22 20:07 54.23491 10.91364 37900 ft 500 kts 214°
2026-04-22 20:07 54.20776 10.87746 38233 ft 500 kts 214°
2026-04-22 20:07 54.17998 10.84057 38300 ft 503 kts 214°
2026-04-22 20:08 54.12453 10.76772 38318 ft 501 kts 214°
2026-04-22 20:08 54.06940 10.69605 38312 ft 496 kts 213°
2026-04-22 20:09 54.01451 10.62511 38339 ft 495 kts 213°
2026-04-22 20:09 53.95969 10.55447 38329 ft 495 kts 213°
2026-04-22 20:10 53.90469 10.48380 38319 ft 496 kts 213°
2026-04-22 20:10 53.84967 10.41331 38346 ft 496 kts 213°
2026-04-22 20:11 53.79485 10.34332 38359 ft 497 kts 213°
2026-04-22 20:11 53.73945 10.27282 38350 ft 499 kts 213°
2026-04-22 20:12 53.68388 10.20233 38351 ft 500 kts 213°
2026-04-22 20:12 53.63789 10.14181 38347 ft 501 kts 215°
2026-04-22 20:13 53.57478 10.05614 38346 ft 502 kts 215°
2026-04-22 20:13 53.52034 9.98258 38352 ft 502 kts 215°
2026-04-22 20:14 53.46574 9.90954 38340 ft 502 kts 215°
2026-04-22 20:14 53.41106 9.83684 38353 ft 501 kts 215°
2026-04-22 20:15 53.35634 9.76433 38352 ft 501 kts 215°
2026-04-22 20:15 53.30165 9.69209 38366 ft 501 kts 215°
2026-04-22 20:16 53.24691 9.62001 38359 ft 501 kts 215°
2026-04-22 20:16 53.19212 9.54810 38363 ft 501 kts 215°
2026-04-22 20:17 53.13731 9.47640 38364 ft 501 kts 215°
2026-04-22 20:17 53.08248 9.40492 38360 ft 501 kts 215°
2026-04-22 20:18 53.02762 9.33364 38367 ft 500 kts 214°
2026-04-22 20:18 52.97271 9.26253 38370 ft 501 kts 214°
2026-04-22 20:19 52.91776 9.19160 38370 ft 501 kts 214°
2026-04-22 20:19 52.86275 9.12083 38379 ft 501 kts 214°
2026-04-22 20:20 52.80766 9.05019 38366 ft 501 kts 214°
2026-04-22 20:20 52.75258 8.97979 38363 ft 501 kts 214°
2026-04-22 20:21 52.69745 8.90956 38368 ft 501 kts 214°
2026-04-22 20:21 52.64229 8.83953 38381 ft 501 kts 215°
2026-04-22 20:22 52.58703 8.76959 38373 ft 501 kts 215°
2026-04-22 20:22 52.53179 8.69991 38365 ft 500 kts 214°
2026-04-22 20:23 52.47654 8.63044 38359 ft 500 kts 214°
2026-04-22 20:23 52.42138 8.56131 38362 ft 500 kts 215°
2026-04-22 20:24 52.36574 8.49180 38387 ft 506 kts 215°
2026-04-22 20:24 52.30930 8.42154 38359 ft 513 kts 215°
2026-04-22 20:25 52.25241 8.35088 38369 ft 514 kts 215°
2026-04-22 20:25 52.19521 8.28063 38360 ft 514 kts 213°
2026-04-22 20:26 52.13545 8.21732 38373 ft 512 kts 210°
2026-04-22 20:26 52.07541 8.15558 38369 ft 510 kts 210°
2026-04-22 20:27 52.01547 8.09381 38358 ft 509 kts 210°
2026-04-22 20:27 51.95587 8.03219 38361 ft 508 kts 211°
2026-04-22 20:28 51.89634 7.97071 38358 ft 507 kts 211°
2026-04-22 20:28 51.83675 7.90937 38358 ft 507 kts 211°
2026-04-22 20:29 51.77717 7.84825 38361 ft 507 kts 211°
2026-04-22 20:29 51.71748 7.78724 38352 ft 508 kts 211°
2026-04-22 20:30 51.65770 7.72632 38348 ft 509 kts 211°
2026-04-22 20:30 51.59781 7.66549 38349 ft 509 kts 211°
2026-04-22 20:31 51.53788 7.60480 38350 ft 509 kts 211°
2026-04-22 20:31 51.47789 7.54424 38347 ft 510 kts 211°
2026-04-22 20:32 51.41777 7.48374 38357 ft 510 kts 211°
2026-04-22 20:32 51.35760 7.42338 38353 ft 510 kts 211°
2026-04-22 20:33 51.29743 7.36321 38353 ft 510 kts 211°
2026-04-22 20:33 51.23722 7.30319 38348 ft 511 kts 211°
2026-04-22 20:34 51.18706 7.25333 38341 ft 511 kts 211°
2026-04-22 20:34 51.12675 7.19356 38349 ft 511 kts 211°
2026-04-22 20:35 51.05619 7.12386 38345 ft 511 kts 211°
2026-04-22 20:35 51.00598 7.07442 38342 ft 510 kts 211°
2026-04-22 20:36 50.94562 7.01514 38348 ft 510 kts 211°
2026-04-22 20:36 50.88528 6.95607 38347 ft 510 kts 211°
2026-04-22 20:37 50.82492 6.89717 38345 ft 509 kts 211°
2026-04-22 20:37 50.76457 6.83845 38343 ft 509 kts 211°
2026-04-22 20:38 50.70423 6.77992 38343 ft 509 kts 211°
2026-04-22 20:38 50.64380 6.72149 38346 ft 509 kts 211°
2026-04-22 20:39 50.58342 6.66328 38334 ft 509 kts 211°
2026-04-22 20:39 50.52304 6.60525 38332 ft 509 kts 211°
2026-04-22 20:40 50.46260 6.54734 38331 ft 509 kts 212°
2026-04-22 20:40 50.40219 6.48963 38323 ft 508 kts 212°
2026-04-22 20:41 50.34177 6.43209 38332 ft 508 kts 212°
2026-04-22 20:41 50.28145 6.37480 38328 ft 507 kts 212°
2026-04-22 20:42 50.22112 6.31769 38305 ft 507 kts 212°
2026-04-22 20:42 50.16081 6.26077 38319 ft 506 kts 212°
2026-04-22 20:43 50.10049 6.20399 38333 ft 506 kts 212°
2026-04-22 20:43 50.04014 6.14736 38329 ft 507 kts 212°
2026-04-22 20:44 49.97973 6.09085 38337 ft 507 kts 212°
2026-04-22 20:44 49.91925 6.03442 38332 ft 508 kts 212°
2026-04-22 20:45 49.85859 5.97799 38308 ft 508 kts 212°
2026-04-22 20:45 49.79827 5.92204 38329 ft 509 kts 212°
2026-04-22 20:45 49.76951 5.89075 38308 ft 505 kts 224°
2026-04-22 20:46 49.72685 5.80640 38303 ft 495 kts 245°
2026-04-22 20:46 49.71334 5.75770 37687 ft 494 kts 253°
2026-04-22 20:46 49.70217 5.70761 37019 ft 492 kts 254°
2026-04-22 20:47 49.69136 5.65762 36304 ft 490 kts 254°
2026-04-22 20:47 49.68037 5.60787 35547 ft 489 kts 254°
2026-04-22 20:47 49.66906 5.55833 34744 ft 490 kts 253°
2026-04-22 20:47 49.65745 5.50873 33880 ft 491 kts 253°
2026-04-22 20:48 49.64579 5.45961 33273 ft 485 kts 253°
2026-04-22 20:48 49.63424 5.41105 32694 ft 479 kts 253°
2026-04-22 20:48 49.62286 5.36307 32140 ft 473 kts 254°
2026-04-22 20:48 49.61238 5.31548 31602 ft 466 kts 256°
2026-04-22 20:49 49.60275 5.26804 31073 ft 460 kts 259°
2026-04-22 20:49 49.59614 5.22024 30553 ft 452 kts 265°
2026-04-22 20:49 49.59228 5.17256 29980 ft 446 kts 269°
2026-04-22 20:49 49.59114 5.12521 29391 ft 438 kts 275°
2026-04-22 20:50 49.59173 5.07863 28877 ft 433 kts 275°
2026-04-22 20:50 49.59244 5.03250 28345 ft 428 kts 275°
2026-04-22 20:50 49.59307 4.98678 27821 ft 425 kts 275°
2026-04-22 20:50 49.59360 4.94148 27272 ft 421 kts 275°
2026-04-22 20:51 49.59405 4.89653 26783 ft 418 kts 275°
2026-04-22 20:51 49.59444 4.85194 26284 ft 415 kts 275°
2026-04-22 20:51 49.59478 4.80803 26093 ft 404 kts 275°
2026-04-22 20:51 49.59508 4.76520 25801 ft 397 kts 275°
2026-04-22 20:52 49.59531 4.72269 25329 ft 396 kts 274°
2026-04-22 20:52 49.59551 4.68033 24884 ft 394 kts 274°
2026-04-22 20:52 49.59568 4.63816 24433 ft 393 kts 274°
2026-04-22 20:52 49.59584 4.59605 23978 ft 392 kts 274°
2026-04-22 20:53 49.59599 4.55401 23468 ft 392 kts 274°
2026-04-22 20:53 49.59612 4.51213 22962 ft 390 kts 274°
2026-04-22 20:53 49.59624 4.47080 22488 ft 388 kts 274°
2026-04-22 20:53 49.59634 4.42900 22046 ft 385 kts 274°
2026-04-22 20:54 49.59643 4.38788 21589 ft 384 kts 274°
2026-04-22 20:54 49.59652 4.34685 21141 ft 382 kts 274°
2026-04-22 20:54 49.59658 4.30590 20689 ft 382 kts 273°
2026-04-22 20:54 49.59663 4.26504 20246 ft 381 kts 273°
2026-04-22 20:55 49.59666 4.22475 19813 ft 381 kts 273°
2026-04-22 20:55 49.59669 4.18404 19345 ft 380 kts 273°
2026-04-22 20:55 49.59671 4.14322 18910 ft 381 kts 273°
2026-04-22 20:55 49.59669 4.10241 18435 ft 380 kts 272°
2026-04-22 20:56 49.59309 4.06234 17900 ft 381 kts 252°
2026-04-22 20:56 49.58081 4.02651 17461 ft 376 kts 236°
2026-04-22 20:56 49.56617 3.99314 17036 ft 376 kts 236°
2026-04-22 20:56 49.55169 3.95962 16588 ft 376 kts 237°
2026-04-22 20:57 49.53734 3.92602 16125 ft 376 kts 237°
2026-04-22 20:57 49.52306 3.89234 15679 ft 376 kts 237°
2026-04-22 20:57 49.50882 3.85862 15242 ft 376 kts 237°
2026-04-22 20:57 49.49458 3.82494 14786 ft 376 kts 237°
2026-04-22 20:58 49.48035 3.79126 14337 ft 375 kts 237°
2026-04-22 20:58 49.46927 3.75563 13847 ft 369 kts 255°
2026-04-22 20:58 49.46381 3.71748 13628 ft 361 kts 259°
2026-04-22 20:58 49.45830 3.68034 13464 ft 352 kts 257°
2026-04-22 20:59 49.45231 3.64424 13308 ft 344 kts 256°
2026-04-22 20:59 49.44632 3.60915 13228 ft 334 kts 256°
2026-04-22 20:59 49.44055 3.57548 13253 ft 326 kts 256°
2026-04-22 20:59 49.43480 3.54163 13287 ft 325 kts 256°
2026-04-22 21:00 49.42907 3.50799 13288 ft 326 kts 256°
2026-04-22 21:00 49.42332 3.47431 13291 ft 327 kts 256°
2026-04-22 21:00 49.41732 3.44066 13274 ft 328 kts 252°
2026-04-22 21:00 49.40938 3.40745 12888 ft 335 kts 248°
2026-04-22 21:01 49.40022 3.37401 12309 ft 345 kts 246°
2026-04-22 21:01 49.39060 3.33978 11790 ft 352 kts 246°
2026-04-22 21:01 49.38090 3.30513 11376 ft 355 kts 246°
2026-04-22 21:01 49.37123 3.27016 10986 ft 357 kts 246°
2026-04-22 21:02 49.36162 3.23504 10649 ft 357 kts 247°
2026-04-22 21:02 49.35208 3.19995 10386 ft 355 kts 247°
2026-04-22 21:02 49.34267 3.16521 10142 ft 352 kts 247°
2026-04-22 21:02 49.33340 3.13095 10069 ft 343 kts 247°
2026-04-22 21:03 49.32436 3.09753 10010 ft 335 kts 247°
2026-04-22 21:03 49.31554 3.06490 9959 ft 328 kts 246°
2026-04-22 21:03 49.30689 3.03301 9891 ft 320 kts 246°
2026-04-22 21:03 49.29843 3.00184 9828 ft 313 kts 246°
2026-04-22 21:04 49.29014 2.97134 9771 ft 307 kts 246°
2026-04-22 21:04 49.28202 2.94152 9711 ft 300 kts 246°
2026-04-22 21:04 49.27406 2.91229 9662 ft 294 kts 246°
2026-04-22 21:04 49.26623 2.88359 9546 ft 291 kts 246°
2026-04-22 21:05 49.25846 2.85516 9364 ft 289 kts 246°
2026-04-22 21:05 49.25069 2.82674 9162 ft 290 kts 246°
2026-04-22 21:05 49.24291 2.79833 8966 ft 289 kts 246°
2026-04-22 21:05 49.23516 2.77004 8796 ft 288 kts 246°
2026-04-22 21:06 49.22743 2.74187 8608 ft 287 kts 246°
2026-04-22 21:06 49.21970 2.71375 8436 ft 286 kts 246°
2026-04-22 21:06 49.21200 2.68573 8251 ft 286 kts 246°
2026-04-22 21:06 49.20430 2.65774 8087 ft 285 kts 246°
2026-04-22 21:07 49.19676 2.63041 7895 ft 285 kts 246°
2026-04-22 21:07 49.18906 2.60254 7735 ft 284 kts 245°
2026-04-22 21:07 49.18170 2.57467 7537 ft 280 kts 252°
2026-04-22 21:07 49.17887 2.54507 7194 ft 285 kts 268°
2026-04-22 21:08 49.17864 2.51480 7039 ft 284 kts 270°
2026-04-22 21:08 49.17865 2.48473 6915 ft 282 kts 270°
2026-04-22 21:08 49.17863 2.45481 6761 ft 281 kts 270°
2026-04-22 21:08 49.17863 2.42494 6577 ft 281 kts 270°
2026-04-22 21:09 49.17863 2.39549 6419 ft 281 kts 270°
2026-04-22 21:09 49.17865 2.36532 6245 ft 280 kts 270°
2026-04-22 21:09 49.17869 2.33599 6080 ft 280 kts 270°
2026-04-22 21:09 49.17872 2.30631 5927 ft 279 kts 270°
2026-04-22 21:10 49.17877 2.27675 5761 ft 278 kts 270°
2026-04-22 21:10 49.17884 2.24716 5606 ft 278 kts 270°
2026-04-22 21:10 49.17892 2.21769 5450 ft 278 kts 270°
2026-04-22 21:10 49.17902 2.18816 5286 ft 278 kts 269°
2026-04-22 21:11 49.17913 2.15859 5110 ft 278 kts 270°
2026-04-22 21:11 49.17926 2.12905 4961 ft 276 kts 268°
2026-04-22 21:11 49.17570 2.10061 4635 ft 275 kts 242°
2026-04-22 21:11 49.16404 2.07817 4406 ft 267 kts 211°
2026-04-22 21:12 49.15316 2.06944 4302 ft 258 kts 191°
2026-04-22 21:12 49.13076 2.07008 4098 ft 238 kts 155°
2026-04-22 21:12 49.11564 2.07977 4053 ft 235 kts 150°
2026-04-22 21:12 49.10082 2.09065 4005 ft 235 kts 149°
2026-04-22 21:13 49.08715 2.10246 3965 ft 215 kts 137°
2026-04-22 21:13 49.07617 2.11664 3958 ft 199 kts 133°
2026-04-22 21:13 49.06628 2.13027 3948 ft 184 kts 133°
2026-04-22 21:13 49.05708 2.14285 3977 ft 176 kts 133°
2026-04-22 21:14 49.04809 2.15510 3981 ft 167 kts 133°
2026-04-22 21:14 49.03973 2.16635 3952 ft 158 kts 133°
2026-04-22 21:14 49.03153 2.17735 3966 ft 157 kts 133°
2026-04-22 21:14 49.02324 2.18852 3971 ft 161 kts 133°
2026-04-22 21:15 49.01500 2.20021 3960 ft 160 kts 123°
2026-04-22 21:15 49.01189 2.21561 3975 ft 152 kts 91°
2026-04-22 21:15 49.01172 2.23184 3977 ft 155 kts 94°
2026-04-22 21:15 49.01117 2.24845 3956 ft 160 kts 92°
2026-04-22 21:16 49.01124 2.26539 3748 ft 157 kts 90°
2026-04-22 21:16 49.01181 2.28204 3547 ft 160 kts 88°
2026-04-22 21:16 49.01260 2.29879 3330 ft 153 kts 88°
2026-04-22 21:16 49.01343 2.31496 3152 ft 157 kts 88°
2026-04-22 21:17 49.01431 2.33177 2941 ft 161 kts 87°
2026-04-22 21:17 49.01523 2.34886 2705 ft 162 kts 87°
2026-04-22 21:17 49.01614 2.36556 2476 ft 154 kts 87°
2026-04-22 21:17 49.01696 2.38077 2279 ft 137 kts 88°
2026-04-22 21:18 49.01772 2.39497 2116 ft 133 kts 87°
2026-04-22 21:18 49.01846 2.40875 1928 ft 125 kts 88°
2026-04-22 21:18 49.01915 2.42163 1751 ft 120 kts 88°
2026-04-22 21:18 49.01984 2.43446 1594 ft 124 kts 88°
2026-04-22 21:19 49.02059 2.44764 1424 ft 127 kts 86°
2026-04-22 21:19 49.02122 2.46112 1265 ft 129 kts 87°
2026-04-22 21:19 49.02172 2.47015 1131 ft 131 kts 84°
2026-04-22 21:19 49.02252 2.48433 905 ft 136 kts 85°
2026-04-22 21:20 49.02327 2.49880 737 ft 139 kts 84°
2026-04-22 21:20 49.02408 2.51351 516 ft 138 kts 83°
2026-04-22 21:20 49.02486 2.52788 369 ft 134 kts 84°
2026-04-22 21:20 49.02575 2.54367 359 ft 82 kts 85°
2026-04-22 21:21 49.02605 2.54954 363 ft 32 kts 86°
2026-04-22 21:21 49.02595 2.55170 365 ft 30 kts 105°
2026-04-22 21:21 49.02523 2.55439 362 ft 15 kts 116°
2026-04-22 21:21 49.02507 2.55490 368 ft 0 kts 116°
2026-04-22 21:22 49.02491 2.55541 366 ft 9 kts 114°
2026-04-22 21:22 49.02454 2.55599 366 ft 9 kts 157°
2026-04-22 21:22 49.02393 2.55614 361 ft 9 kts 176°
2026-04-22 21:22 49.02327 2.55622 359 ft 10 kts 175°
2026-04-22 21:23 49.02249 2.55632 359 ft 12 kts 175°
2026-04-22 21:23 49.02166 2.55643 359 ft 11 kts 175°
2026-04-22 21:23 49.02094 2.55622 363 ft 11 kts 216°
2026-04-22 21:23 49.02067 2.55517 364 ft 11 kts 263°
2026-04-22 21:24 49.02058 2.55400 359 ft 11 kts 263°
2026-04-22 21:24 49.02049 2.55283 359 ft 11 kts 266°
2026-04-22 21:24 49.02044 2.55160 365 ft 13 kts 265°
2026-04-22 21:24 49.02037 2.55016 361 ft 14 kts 265°
2026-04-22 21:25 49.02029 2.54867 365 ft 15 kts 266°
2026-04-22 21:25 49.02022 2.54709 360 ft 16 kts 265°
2026-04-22 21:25 49.02014 2.54546 362 ft 16 kts 265°
2026-04-22 21:25 49.02004 2.54380 366 ft 16 kts 265°
2026-04-22 21:26 49.01973 2.54324 364 ft 11 kts 195°
2026-04-22 21:26 49.01878 2.54331 363 ft 15 kts 176°
2026-04-22 21:26 49.01792 2.54398 364 ft 15 kts 126°
2026-04-22 21:26 49.01735 2.54526 367 ft 15 kts 126°
2026-04-22 21:27 49.01662 2.54635 364 ft 15 kts 142°
2026-04-22 21:27 49.01573 2.54708 368 ft 15 kts 159°
2026-04-22 21:27 49.01476 2.54745 365 ft 12 kts 172°
2026-04-22 21:27 49.01442 2.54711 367 ft 6 kts 260°
2026-04-22 21:28 49.01438 2.54641 362 ft 6 kts 268°
2026-04-22 21:28 49.01438 2.54620 359 ft 0 kts 268°